Home   Weather   Piešťany   Past weeks

Flag for Slovakia Past Weather in Piešťany, Slovakia — Yesterday and Last 2 Weeks

Now
36 °F

Sunny.


Feels Like: 29 °F
Forecast: 22 / 33 °F
Wind: 9 mph from South

Location: Piestany

Current Time: Dec 7, 2016 at 1:36:52 pm

Latest Report: Dec 7, 2016 at 1:00 pm


Visibility: 10 mi

Pressure: 30.66 "Hg

Humidity: 70%

Dew Point: 27 °F

Location of PiešťanyLocation

Past Weather in Piešťany — Graph

°F

Piešťany Temperature Yesterday

Maximum temperature yesterday: 32 °F (at 1:30 pm)
Minimum temperature yesterday: 25 °F (at 12:00 am)
Average temperature yesterday: 29 °F

High & Low Weather Summary for the Past Weeks

 TemperatureHumidityPressure
High55 °F (Nov 22, 12:30 pm)100% (Nov 25, 8:30 am)30.66 "Hg (Nov 25, 8:30 am)
Low18 °F (Dec 5, 5:00 am)52% (Nov 29, 2:00 pm)29.68 "Hg (Dec 2, 5:30 am)
Average37 °F80%30.21 "Hg
* Reported Nov 22 12:00 pm — Dec 7 12:30 pm, Piešťany, Weather by CustomWeather, © 2016

Note: Actual official high and low records may vary slightly from our data, if they occured in-between our weather recording intervals... More about our weather records

Advertising

Piešťany Weather History for the Previous 24 Hours

Scroll right to see more
 ConditionsComfort  
Time TempWeatherWind HumidityBarometerVisibility
12:30 pm
Wed, Dec 7
36 °FSunny.6 mph70%30.66 "Hg10 mi
12:00 pm36 °FPassing clouds.3 mph70%30.66 "HgN/A
11:30 am34 °FPassing clouds.5 mph75%30.66 "HgN/A
11:00 am34 °FSunny.3 mph75%30.66 "Hg10 mi
10:30 am30 °FPassing clouds.5 mph86%30.66 "HgN/A
10:00 am30 °FSunny.5 mph86%30.66 "Hg10 mi
9:30 am28 °FSunny.5 mph86%30.66 "Hg10 mi
9:00 am25 °FSunny.5 mph93%30.66 "Hg10 mi
8:30 am23 °FSunny.2 mph93%30.66 "Hg10 mi
8:00 am21 °FSunny.2 mph100%30.63 "Hg10 mi
7:30 am23 °FClear.3 mph93%30.63 "Hg4 mi
7:00 am23 °FClear.2 mph93%30.63 "Hg5 mi
6:30 am25 °FClear.1 mph93%30.63 "Hg5 mi
6:00 am23 °FClear.3 mph86%30.60 "Hg5 mi
5:30 am27 °FChilly.3 mph86%30.60 "Hg5 mi
5:00 am25 °FCold.5 mph86%30.60 "HgN/A
4:30 am27 °FChilly.6 mph93%30.60 "Hg4 mi
4:00 am28 °FChilly.9 mph86%30.57 "Hg4 mi
3:30 am28 °FChilly.7 mph86%30.57 "Hg4 mi
3:00 am28 °FPassing clouds.5 mph86%30.57 "Hg4 mi
2:30 am28 °FChilly.3 mph86%30.57 "Hg4 mi
2:00 am30 °FMostly cloudy.5 mph86%30.57 "Hg4 mi
1:30 am30 °FChilly.7 mph86%30.54 "Hg4 mi
1:00 am30 °FChilly.6 mph86%30.54 "Hg4 mi
12:30 am30 °FPassing clouds.9 mph86%30.54 "Hg4 mi
12:00 am30 °FOvercast.9 mph86%30.54 "Hg4 mi
11:30 pm
Tue, Dec 6
30 °FChilly.9 mph80%30.54 "Hg4 mi
11:00 pm30 °FChilly.7 mph80%30.54 "Hg4 mi
10:00 pm30 °FChilly.7 mph80%30.51 "Hg5 mi
9:30 pm30 °FChilly.10 mph86%30.51 "Hg5 mi
9:00 pm30 °FPassing clouds.10 mph86%30.51 "Hg5 mi
8:30 pm32 °FPassing clouds.8 mph80%30.51 "Hg5 mi
8:00 pm32 °FPassing clouds.8 mph80%30.48 "Hg5 mi
7:00 pm30 °FPassing clouds.5 mph80%30.48 "Hg4 mi
6:30 pm30 °FPassing clouds.3 mph80%30.45 "Hg4 mi
6:00 pm30 °FPassing clouds.3 mph80%30.45 "Hg4 mi
5:30 pm30 °FPassing clouds.3 mph80%30.45 "Hg4 mi
5:00 pm30 °FPassing clouds.6 mph80%30.45 "Hg4 mi
4:30 pm30 °FPassing clouds.5 mph80%30.42 "Hg4 mi
4:00 pm28 °FPassing clouds.7 mph80%30.42 "Hg4 mi
3:30 pm30 °FPassing clouds.10 mph75%30.39 "Hg4 mi
3:00 pm30 °FPassing clouds.10 mph80%30.39 "Hg5 mi
2:30 pm30 °FPassing clouds.10 mph80%30.39 "Hg6 mi
2:00 pm32 °FPassing clouds.9 mph75%30.39 "HgN/A
1:30 pm32 °FScattered clouds.7 mph75%30.39 "HgN/A
1:00 pm30 °FBroken clouds.10 mph75%30.39 "HgN/A
Weather by CustomWeather, © 2016

See weather overviewHow to use our weather pages